GW0655 Weather Reports


time (UTC)temp
F
wind
direction
speed
knots
gust
knots
rain 1hr
in
rain 24hr
in
rain mn
in
humidity
%
barometer
mb
20260906061933 84 209 2.6 2.6 0.00 0.00 0.00 73 1014.8
20260906061429 84 176 2.6 2.6 0.00 0.00 0.00 73 1014.8
20260906060924 84 210 2.6 2.6 0.00 0.00 0.00 73 1015.2
20260906060421 84 225 1.7 1.7 0.00 0.00 0.00 73 1014.8
20260906055917 85 228 2.6 2.6 0.00 0.00 0.00 72 1014.8
20260906055413 85 214 0.9 1.7 0.00 0.00 0.00 72 1014.8
20260906054908 85 238 1.7 1.7 0.00 0.00 0.00 72 1014.8
20260906054403 85 226 2.6 2.6 0.00 0.00 0.00 71 1014.5
20260906053859 85 222 1.7 1.7 0.00 0.00 0.00 71 1014.8
20260906053354 85 215 0.9 1.7 0.00 0.00 0.00 70 1014.8
20260906052850 85 229 1.7 1.7 0.00 0.00 0.00 71 1014.8
20260906052346 85 219 2.6 5.2 0.00 0.00 0.00 70 1014.8
20260906051843 86 204 0.9 1.7 0.00 0.00 0.00 69 1014.8
20260906051342 86 254 1.7 1.7 0.00 0.00 0.00 69 1014.5
20260906050839 86 252 0.9 1.7 0.00 0.00 0.00 69 1014.8
20260906050333 86 198 0.9 1.7 0.00 0.00 0.00 68 1014.5
20260906045832 86 192 0.9 0.9 0.00 0.00 0.00 68 1014.5
20260906045326 86 213 0.9 1.7 0.00 0.00 0.00 68 1014.8
20260906044823 86 188 0.9 0.9 0.00 0.00 0.00 68 1014.8
20260906044317 86 221 0.9 0.9 0.00 0.00 0.00 68 1014.8
20260906043813 86 222 0.9 0.9 0.00 0.00 0.00 68 1015.2
20260906043308 86 247 0.0 0.9 0.00 0.00 0.00 69 1014.8
20260906042803 86 237 0.0 0.0 0.00 0.00 0.00 68 1014.8
20260906042306 86 250 0.9 0.9 0.00 0.00 0.00 68 1014.8
20260906041758 86 214 0.9 0.9 0.00 0.00 0.00 68 1014.8
20260906041253 86 222 0.9 0.9 0.00 0.00 0.00 67 1014.8
20260906040748 86 233 0.0 0.0 0.00 0.00 0.00 67 1014.8
20260906040243 86 170 0.0 0.0 0.00 0.00 0.00 66 1014.8
20260906035738 86 204 0.0 0.9 0.00 0.00 0.00 66 1014.5
20260906035234 86 161 1.7 1.7 0.00 0.00 0.00 65 1014.5
20260906034734 86 223 0.9 1.7 0.00 0.00 0.00 65 1014.5
20260906034229 87 142 0.9 1.7 0.00 0.00 0.00 64 1014.8
20260906033725 87 189 1.7 1.7 0.00 0.00 0.00 63 1014.8
20260906033224 87 174 1.7 1.7 0.00 0.00 0.00 63 1014.8
20260906032721 87 248 0.0 0.9 0.00 0.00 0.00 62 1014.8
20260906032221 87 212 0.0 0.9 0.00 0.00 0.00 62 1014.8
20260906031716 87 232 1.7 1.7 0.00 0.00 0.00 61 1014.5
20260906031212 88 222 0.9 0.9 0.00 0.00 0.00 61 1014.5
20260906030711 88 237 0.9 0.9 0.00 0.00 0.00 60 1014.5
20260906030206 88 240 0.9 0.9 0.00 0.00 0.00 59 1014.5
20260906025706 88 133 2.6 4.3 0.00 0.00 0.00 59 1014.1
20260906025200 89 104 5.2 7.0 0.00 0.00 0.00 58 1013.8
20260906024654 89 157 2.6 4.3 0.00 0.00 0.00 58 1013.8
20260906024153 89 129 1.7 2.6 0.00 0.00 0.00 57 1013.5
20260906023650 89 81 1.7 2.6 0.00 0.00 0.00 57 1013.5
20260906023149 89 166 0.9 0.9 0.00 0.00 0.00 56 1013.5
20260906022644 90 89 1.7 1.7 0.00 0.00 0.00 56 1013.5
20260906022140 90 95 0.9 1.7 0.00 0.00 0.00 55 1012.7
20260906021636 90 61 0.9 0.9 0.00 0.00 0.00 55 1013.1
20260906021134 90 166 1.7 4.3 0.00 0.00 0.00 55 1012.7
20260906020629 91 311 3.5 6.1 0.00 0.00 0.00 54 1012.7
20260906020124 91 148 4.3 6.1 0.00 0.00 0.00 54 1012.7
20260906015618 91 265 4.3 5.2 0.00 0.00 0.00 54 1012.4
20260906015117 91 156 3.5 5.2 0.00 0.00 0.00 54 1012.7
20260906014612 91 165 0.9 1.7 0.00 0.00 0.00 54 1012.4
20260906014108 91 137 2.6 2.6 0.00 0.00 0.00 54 1012.7
20260906013603 91 90 4.3 6.1 0.00 0.00 0.00 54 1012.7
20260906013058 91 65 0.9 1.7 0.00 0.00 0.00 54 1012.7
20260906012553 91 166 0.9 1.7 0.00 0.00 0.00 54 1012.4
20260906012053 91 87 0.0 0.9 0.00 0.00 0.00 53 1012.4
20260906011549 92 218 0.9 0.9 0.00 0.00 0.00 52 1012.4
20260906011049 92 98 1.7 2.6 0.00 0.00 0.00 52 1012.4
20260906010544 91 217 0.0 0.9 0.00 0.00 0.00 51 1012.4
20260906010041 91 175 1.7 2.6 0.00 0.00 0.00 51 1012.4
20260906005540 92 172 2.6 2.6 0.00 0.00 0.00 50 1012.4
20260906005039 92 205 1.7 1.7 0.00 0.00 0.00 50 1012.4
20260906004538 91 211 2.6 4.3 0.00 0.00 0.00 50 1012.4
20260906004033 91 233 2.6 2.6 0.00 0.00 0.00 51 1012.0
20260906003528 91 134 2.6 4.3 0.00 0.00 0.00 53 1012.0
20260906003025 90 226 4.3 5.2 0.00 0.00 0.00 55 1012.4
20260906002519 92 165 4.3 5.2 0.00 0.00 0.00 53 1012.4
20260906002014 95 115 4.3 7.8 0.00 0.00 0.00 48 1012.0
20260906001510 96 126 2.6 5.2 0.00 0.00 0.00 44 1012.0
20260906001004 96 95 2.6 4.3 0.00 0.00 0.00 44 1012.0
20260906000500 97 113 1.7 1.7 0.00 0.00 0.00 43 1012.0
20260906000000 98 99 1.7 2.6 0.00 0.00 0.00 42 1012.0
20260905235454 98 61 2.6 5.2 0.00 0.00 0.00 41 1011.7
20260905234949 98 140 2.6 4.3 0.00 0.00 0.00 41 1011.7
20260905234444 99 160 1.7 1.7 0.00 0.00 0.00 40 1012.0
20260905233938 99 122 3.5 6.1 0.00 0.00 0.00 40 1012.0
20260905233434 99 165 0.9 0.9 0.00 0.00 0.00 39 1011.7
20260905232933 99 220 1.7 2.6 0.00 0.00 0.00 39 1011.7
20260905232429 99 249 0.0 0.9 0.00 0.00 0.00 39 1011.7
20260905231924 99 115 0.9 0.9 0.00 0.00 0.00 39 1011.7
20260905231420 100 121 1.7 1.7 0.00 0.00 0.00 37 1011.7
20260905230917 100 132 1.7 1.7 0.00 0.00 0.00 37 1011.7
20260905230414 100 52 0.0 0.0 0.00 0.00 0.00 37 1011.7
20260905225907 100 347 0.0 0.9 0.00 0.00 0.00 37 1011.7
20260905225403 101 56 0.9 2.6 0.00 0.00 0.00 37 1011.7
20260905224857 101 133 2.6 4.3 0.00 0.00 0.00 37 1011.7
20260905224353 100 263 0.9 1.7 0.00 0.00 0.00 37 1011.7
20260905223848 100 68 2.6 4.3 0.00 0.00 0.00 37 1011.7
20260905223346 101 277 0.9 0.9 0.00 0.00 0.00 37 1011.7
20260905222840 101 173 1.7 1.7 0.00 0.00 0.00 37 1011.7
20260905222339 102 46 0.0 0.0 0.00 0.00 0.00 36 1011.7
20260905221835 102 260 2.6 4.3 0.00 0.00 0.00 36 1011.7
20260905221332 101 197 0.9 1.7 0.00 0.00 0.00 36 1011.7
20260905220827 101 203 1.7 4.3 0.00 0.00 0.00 37 1011.7
20260905220323 102 173 1.7 2.6 0.00 0.00 0.00 36 1012.0
20260905215822 101 28 0.0 0.0 0.00 0.00 0.00 37 1011.7
20260905215318 101 269 1.7 1.7 0.00 0.00 0.00 36 1012.0
20260905214815 102 220 1.7 1.7 0.00 0.00 0.00 37 1011.7
20260905214310 101 252 2.6 4.3 0.00 0.00 0.00 36 1011.7
20260905213804 102 153 1.7 2.6 0.00 0.00 0.00 36 1012.0
20260905213300 102 246 0.9 0.9 0.00 0.00 0.00 35 1011.7
20260905212755 101 222 1.7 1.7 0.00 0.00 0.00 36 1011.7
20260905212254 101 136 1.7 1.7 0.00 0.00 0.00 37 1012.0
20260905211749 100 106 2.6 4.3 0.00 0.00 0.00 37 1012.0
20260905211244 103 185 2.6 2.6 0.00 0.00 0.00 36 1012.0
20260905210742 103 239 0.9 1.7 0.00 0.00 0.00 34 1012.0
20260905210240 102 203 0.9 0.9 0.00 0.00 0.00 36 1012.0
20260905205739 102 189 1.7 2.6 0.00 0.00 0.00 35 1012.4
20260905205235 102 202 2.6 4.3 0.00 0.00 0.00 36 1012.4
20260905204734 102 201 2.6 2.6 0.00 0.00 0.00 36 1012.0
20260905204230 101 202 1.7 2.6 0.00 0.00 0.00 36 1012.7
20260905203729 100 350 0.0 0.9 0.00 0.00 0.00 37 1012.7
20260905203225 101 200 5.2 6.1 0.00 0.00 0.00 36 1012.7
20260905202720 103 228 0.9 1.7 0.00 0.00 0.00 35 1012.7
20260905202215 101 208 0.9 1.7 0.00 0.00 0.00 35 1013.1
20260905201710 101 14 2.6 4.3 0.00 0.00 0.00 36 1012.7
20260905201205 102 293 0.0 0.0 0.00 0.00 0.00 36 1013.5
20260905200700 101 290 0.9 0.9 0.00 0.00 0.00 36 1013.5
20260905200156 101 178 1.7 2.6 0.00 0.00 0.00 35 1013.1
20260905195654 102 209 3.5 4.3 0.00 0.00 0.00 36 1013.5
20260905195149 101 226 4.3 5.2 0.00 0.00 0.00 35 1013.5
20260905194644 100 291 1.7 1.7 0.00 0.00 0.00 37 1013.5
20260905194144 100 237 3.5 5.2 0.00 0.00 0.00 37 1013.8
20260905193638 101 277 0.9 0.9 0.00 0.00 0.00 37 1013.5
20260905193133 100 268 0.0 1.7 0.00 0.00 0.00 37 1013.8
20260905192628 99 264 0.0 0.0 0.00 0.00 0.00 38 1014.1
20260905192125 100 300 0.9 0.9 0.00 0.00 0.00 38 1014.1
20260905191624 98 227 3.5 5.2 0.00 0.00 0.00 40 1014.1
20260905191122 100 128 1.7 2.6 0.00 0.00 0.00 40 1014.1
20260905190621 98 211 1.7 1.7 0.00 0.00 0.00 40 1014.1
20260905190115 99 142 0.9 1.7 0.00 0.00 0.00 39 1014.5
20260905185614 98 170 2.6 4.3 0.00 0.00 0.00 41 1014.5
20260905185108 98 172 2.6 4.3 0.00 0.00 0.00 41 1014.5
20260905184603 97 210 0.9 1.7 0.00 0.00 0.00 42 1014.5
20260905184101 97 254 0.0 0.9 0.00 0.00 0.00 40 1014.8
20260905183555 99 179 2.6 2.6 0.00 0.00 0.00 40 1014.5
20260905183051 98 253 1.7 1.7 0.00 0.00 0.00 40 1015.2
20260905182545 98 184 0.9 1.7 0.00 0.00 0.00 40 1014.8
20260905182044 98 132 0.9 1.7 0.00 0.00 0.00 42 1015.2
20260905181539 99 275 0.9 0.9 0.00 0.00 0.00 43 1015.2
20260905181039 97 148 0.0 0.9 0.00 0.00 0.00 43 1015.2
20260905180533 98 181 4.3 5.2 0.00 0.00 0.00 43 1015.5
20260905180029 98 283 2.6 2.6 0.00 0.00 0.00 44 1015.5
20260905175528 95 242 0.9 0.9 0.00 0.00 0.00 46 1015.5
20260905175024 97 174 3.5 4.3 0.00 0.00 0.00 45 1015.8
20260905174519 95 268 0.9 1.7 0.00 0.00 0.00 46 1016.2
20260905174014 96 293 2.6 2.6 0.00 0.00 0.00 46 1015.8
20260905173511 94 159 1.7 2.6 0.00 0.00 0.00 47 1016.2
20260905173006 96 206 4.3 5.2 0.00 0.00 0.00 45 1016.2
20260905172504 95 271 2.6 2.6 0.00 0.00 0.00 45 1016.2
20260905172000 95 186 2.6 4.3 0.00 0.00 0.00 48 1016.5
20260905171456 94 272 0.9 0.9 0.00 0.00 0.00 51 1016.2
20260905170952 94 89 3.5 5.2 0.00 0.00 0.00 52 1016.2
20260905170448 95 208 3.5 4.3 0.00 0.00 0.00 50 1016.2
20260905165947 94 198 2.6 4.3 0.00 0.00 0.00 51 1016.5
20260905165443 94 221 0.9 1.7 0.00 0.00 0.00 51 1016.5
20260905164938 93 226 2.6 2.6 0.00 0.00 0.00 53 1016.2
20260905164432 93 267 0.9 0.9 0.00 0.00 0.00 54 1016.2
20260905163927 92 237 2.6 2.6 0.00 0.00 0.00 56 1016.5
20260905163424 92 237 0.9 1.7 0.00 0.00 0.00 56 1016.5
20260905162920 93 207 5.2 7.8 0.00 0.00 0.00 54 1016.5
20260905162414 93 141 3.5 4.3 0.00 0.00 0.00 54 1016.5
20260905161909 93 206 4.3 7.0 0.00 0.00 0.00 56 1016.5
20260905161409 93 226 0.9 0.9 0.00 0.00 0.00 57 1016.5
20260905160906 93 143 1.7 1.7 0.00 0.00 0.00 59 1016.5
20260905160401 92 274 1.7 1.7 0.00 0.00 0.00 60 1016.9
20260905155855 93 254 1.7 2.6 0.00 0.00 0.00 60 1016.5
20260905155355 92 316 1.7 2.6 0.00 0.00 0.00 60 1016.5
20260905154854 91 183 2.6 2.6 0.00 0.00 0.00 62 1016.5
20260905154349 91 308 1.7 1.7 0.00 0.00 0.00 62 1016.5
20260905153845 91 279 0.9 0.9 0.00 0.00 0.00 62 1016.5
20260905153342 89 228 0.0 0.9 0.00 0.00 0.00 64 1016.5
20260905152841 90 271 0.9 0.9 0.00 0.00 0.00 65 1016.9
20260905152340 89 257 0.9 0.9 0.00 0.00 0.00 67 1016.5
20260905151835 88 268 0.0 0.9 0.00 0.00 0.00 68 1016.9
20260905151331 86 230 0.9 0.9 0.00 0.00 0.00 72 1016.5
20260905150831 89 262 0.9 0.9 0.00 0.00 0.00 68 1016.5
20260905150325 88 252 0.0 0.0 0.00 0.00 0.00 69 1016.5
20260905145822 87 206 1.7 1.7 0.00 0.00 0.00 72 1016.5
20260905145316 87 203 1.7 1.7 0.00 0.00 0.00 74 1016.9
20260905144815 87 263 0.9 0.9 0.00 0.00 0.00 74 1016.5
20260905144311 86 243 0.0 0.0 0.00 0.00 0.00 76 1016.5
20260905143810 87 284 0.9 0.9 0.00 0.00 0.00 75 1016.9
20260905143304 87 277 0.9 0.9 0.00 0.00 0.00 76 1016.5
20260905142803 85 261 0.0 0.0 0.00 0.00 0.00 79 1016.2
20260905142257 84 275 0.0 0.9 0.00 0.00 0.00 82 1016.5
20260905141754 83 167 0.9 0.9 0.00 0.00 0.00 83 1016.2
20260905141249 83 227 0.9 0.9 0.00 0.00 0.00 85 1016.5
20260905140744 84 203 1.7 2.6 0.00 0.00 0.00 83 1016.2
20260905140239 83 232 0.9 0.9 0.00 0.00 0.00 84 1016.2
20260905135738 83 201 0.9 0.9 0.00 0.00 0.00 84 1016.2
20260905135234 83 243 0.9 0.9 0.00 0.00 0.00 83 1016.2
20260905134733 83 255 0.0 0.9 0.00 0.00 0.00 84 1016.2
20260905134233 83 159 0.9 1.7 0.00 0.00 0.00 83 1016.2
20260905133728 82 162 0.9 1.7 0.00 0.00 0.00 85 1016.2
20260905133223 82 216 0.9 0.9 0.00 0.00 0.00 84 1016.2
20260905132722 82 185 0.9 0.9 0.00 0.00 0.00 84 1015.8
20260905132218 81 227 0.9 0.9 0.00 0.00 0.00 86 1016.2
20260905131713 81 234 0.0 0.0 0.00 0.00 0.00 86 1015.8
20260905131208 80 230 0.0 0.0 0.00 0.00 0.00 88 1016.2
20260905130702 79 191 0.9 0.9 0.00 0.00 0.00 90 1015.8
20260905130202 78 180 0.9 1.7 0.00 0.00 0.00 91 1015.8
20260905125656 78 205 0.0 0.9 0.00 0.00 0.00 92 1015.8
20260905125152 77 184 0.9 1.7 0.00 0.00 0.00 92 1015.8
20260905124648 77 237 0.0 0.0 0.00 0.00 0.00 92 1015.8
20260905124144 77 223 0.0 0.0 0.00 0.00 0.00 92 1015.8
20260905123639 77 240 0.0 0.0 0.00 0.00 0.00 92 1015.5
20260905123136 77 246 0.0 0.0 0.00 0.00 0.00 92 1015.5
20260905122635 77 243 0.0 0.0 0.00 0.00 0.00 92 1015.5
20260905122131 77 242 0.0 0.0 0.00 0.00 0.00 92 1015.5
20260905121625 77 242 0.0 0.0 0.00 0.00 0.00 92 1015.2
20260905121120 77 242 0.0 0.0 0.00 0.00 0.00 91 1015.2
20260905120619 77 232 0.0 0.0 0.00 0.00 0.00 91 1015.2
20260905120114 77 222 0.0 0.9 0.00 0.00 0.00 90 1015.2
20260905115614 77 244 0.0 0.0 0.00 0.00 0.00 90 1015.5
20260905115109 77 255 0.0 0.9 0.00 0.00 0.00 90 1015.2
20260905114608 77 241 0.0 0.0 0.00 0.00 0.00 91 1015.2
20260905114107 77 248 0.0 0.0 0.00 0.00 0.00 91 1015.2
20260905113603 77 240 0.0 0.0 0.00 0.00 0.00 91 1015.2
20260905113057 77 243 0.0 0.0 0.00 0.00 0.00 91 1015.2
20260905112552 77 270 0.0 0.0 0.00 0.00 0.00 91 1015.2
20260905112048 77 260 0.0 0.0 0.00 0.00 0.00 91 1015.2
20260905111543 77 267 0.0 0.0 0.00 0.00 0.00 92 1015.2
20260905111042 77 275 0.0 0.0 0.00 0.00 0.00 92 1015.2
20260905110541 77 274 0.0 0.0 0.00 0.00 0.00 92 1015.2
20260905110037 77 274 0.0 0.0 0.00 0.00 0.00 92 1015.2
20260905105537 77 274 0.0 0.0 0.00 0.00 0.00 92 1014.8
20260905105036 77 267 0.0 0.0 0.00 0.00 0.00 93 1014.8
20260905104532 76 271 0.0 0.0 0.00 0.00 0.00 93 1014.8
20260905104031 76 272 0.0 0.0 0.00 0.00 0.00 93 1015.2
20260905103527 76 272 0.0 0.0 0.00 0.00 0.00 93 1014.8
20260905103023 76 273 0.0 0.0 0.00 0.00 0.00 93 1014.8
20260905102518 76 272 0.0 0.0 0.00 0.00 0.00 92 1014.8
20260905102015 76 272 0.0 0.0 0.00 0.00 0.00 92 1015.2
20260905101513 76 262 0.0 0.0 0.00 0.00 0.00 92 1014.8
20260905101011 76 268 0.0 0.0 0.00 0.00 0.00 92 1014.8
20260905100508 76 271 0.0 0.0 0.00 0.00 0.00 92 1014.8
20260905100008 76 274 0.0 0.0 0.00 0.00 0.00 92 1014.5
20260905095502 77 255 0.0 0.0 0.00 0.00 0.00 92 1014.8
20260905094957 77 269 0.0 0.0 0.00 0.00 0.00 92 1014.5
20260905094452 76 263 0.0 0.0 0.00 0.00 0.00 92 1014.5
20260905093951 76 256 0.0 0.0 0.00 0.00 0.00 92 1014.8
20260905093447 76 255 0.0 0.0 0.00 0.00 0.00 91 1014.5
20260905092942 76 260 0.0 0.0 0.00 0.00 0.00 91 1014.5
20260905092438 76 260 0.0 0.0 0.00 0.00 0.00 90 1014.8
20260905091933 76 260 0.0 0.0 0.00 0.00 0.00 90 1014.8
20260905091433 76 259 0.0 0.0 0.00 0.00 0.00 90 1014.8
20260905090932 77 246 0.0 0.0 0.00 0.00 0.00 90 1014.8
20260905090428 77 237 0.0 0.0 0.00 0.00 0.00 90 1014.5
20260905085927 77 249 0.0 0.0 0.00 0.00 0.00 90 1014.8
20260905085426 77 241 0.0 0.0 0.00 0.00 0.00 90 1014.8
20260905084922 77 262 0.0 0.0 0.00 0.00 0.00 89 1014.8
20260905084421 77 241 0.0 0.0 0.00 0.00 0.00 89 1014.8
20260905083916 77 249 0.0 0.0 0.00 0.00 0.00 89 1014.8
20260905083412 77 234 0.0 0.0 0.00 0.00 0.00 89 1014.8
20260905082908 77 240 0.0 0.0 0.00 0.00 0.00 88 1014.8
20260905082404 77 246 0.0 0.0 0.00 0.00 0.00 88 1015.2
20260905081858 77 249 0.0 0.0 0.00 0.00 0.00 88 1015.2
20260905081353 78 251 0.0 0.0 0.00 0.00 0.00 88 1015.2
20260905080852 78 245 0.0 0.0 0.00 0.00 0.00 88 1014.8
20260905080347 78 233 0.0 0.0 0.00 0.00 0.00 87 1015.2
20260905075846 78 238 0.0 0.9 0.00 0.00 0.00 86 1015.2
20260905075345 78 214 0.0 0.0 0.00 0.00 0.00 86 1015.2
20260905074844 78 245 0.0 0.0 0.00 0.00 0.00 86 1015.2
20260905074341 78 239 0.0 0.0 0.00 0.00 0.00 85 1015.2
20260905073836 78 241 0.0 0.0 0.00 0.00 0.00 85 1015.2
20260905073331 78 231 0.0 0.9 0.00 0.00 0.00 85 1015.2
20260905072826 78 236 0.0 0.0 0.00 0.00 0.00 85 1015.2
20260905072321 78 225 0.0 0.0 0.00 0.00 0.00 84 1015.2
20260905071818 78 239 0.0 0.0 0.00 0.00 0.00 84 1015.2
20260905071314 79 240 0.0 0.0 0.00 0.00 0.00 84 1015.5
20260905070808 79 242 0.0 0.0 0.00 0.00 0.00 83 1015.5
20260905070304 79 234 0.0 0.0 0.00 0.00 0.00 83 1015.5
20260905065803 79 231 0.0 0.0 0.00 0.00 0.00 83 1015.5
20260905065256 79 235 0.0 0.0 0.00 0.00 0.00 83 1015.5
20260905064752 79 239 0.0 0.0 0.00 0.00 0.00 82 1015.5
20260905064247 79 237 0.0 0.0 0.00 0.00 0.00 82 1015.5
20260905063746 79 249 0.0 0.0 0.00 0.00 0.00 82 1015.2
20260905063242 79 249 0.0 0.9 0.00 0.00 0.00 81 1015.5
20260905062738 79 251 0.0 0.0 0.00 0.00 0.00 81 1015.5
20260905062238 80 226 0.0 0.0 0.00 0.00 0.00 80 1015.5